Preview of NWS' New Version of Forecast
This preview is not operational and should not be used for support decisions.

Regional Weather Roundup (RWR)

Issued by National Weather Service (NWS)

                            
000
ASUS45 KABQ 201101
RWRNM 
NEW MEXICO REGIONAL WEATHER ROUNDUP
NATIONAL WEATHER SERVICE ALBUQUERQUE NM
500 AM MDT THU JUN 20 2019

NOTE: "FAIR" MEANS FEW OR NO CLOUDS BELOW 12,000 FEET AGL WITH NO
       SIGNIFICANT WEATHER OR OBSTRUCTIONS TO VISION.

      THIS PRODUCT IS RELEASED AS TWO VERSIONS.  ONE VERSION NEAR
      THE TOP OF THE HOUR CONTAINING PRELIMINARY DATA FROM ALBUQUERQUE
      AND OTHER STATIONS.  A FINAL VERSION WITH ADDITIONAL DATA IS 
      ISSUED ABOUT 10 MINUTES AFTER THE HOUR.
 
NMZ501-503-504-510>518-201200-
NORTHWEST PLATEAU/NORTHCENTRAL MOUNTAINS
  
CITY           SKY/WX    TMP DP  RH WIND       PRES   REMARKS
FARMINGTON     FAIR      49  30  48 NE6       29.99R                  
LOS ALAMOS       N/A     65  25  21 NW15      30.12S                  
SANTA FE       FAIR      53  31  42 NE3       30.05S                  
TAOS           FAIR      46  30  53 NE9       30.11S                  
ANGEL FIRE       N/A     46  31  57 CALM      30.17R                  

$$
NMZ402-403-502-505>509-201200-
WESTCENTRAL MOUNTAINS/SOUTHWEST MOUNTAINS
  
CITY           SKY/WX    TMP DP  RH WIND       PRES   REMARKS
GALLUP         FAIR      55  24  30 S6        30.14S                  
GRANTS         FAIR      55  23  28 CALM      30.15R                  
SILVER CITY    FAIR      62  19  19 N12       30.08S                  

$$
NMZ407-409-411-412-201200-
SOUTHERN DESERTS
  
CITY           SKY/WX    TMP DP  RH WIND       PRES   REMARKS
DEMING         FAIR      62  23  22 SW9       30.01R                  
LAS CRUCES     FAIR      66  21  18 W13       29.99S                  
HOLLOMAN AFB   FAIR      70  25  18 SE10      29.97R                  
ALAMOGORDO     FAIR      64  23  20 S6        29.97R                  
T OR C         FAIR      72  18  13 W12       30.00S                  

$$
NMZ519>523-201200-
CENTRAL VALLEYS/CENTRAL HIGHLANDS
  
CITY           SKY/WX    TMP DP  RH WIND       PRES   REMARKS
ALBUQUERQUE    FAIR      62  28  27 E9        30.02R                  
DOUBLE EAGLE   FAIR      58  27  30 W5        30.05R                  
MORIARTY ARPT  FAIR      44  34  66 N5        30.08R                  
CLINES CORNERS FAIR      54  30  40 W13       30.12R                  
BELEN          FAIR      71  21  15 W14       30.02R                  
SOCORRO        FAIR      78  22  12 W25G33    29.96S                  

$$
NMZ524>526-539-540-201200-
SOUTHCENTRAL MOUNTAINS
  
CITY           SKY/WX    TMP DP  RH WIND       PRES   REMARKS
RUIDOSO        FAIR      64  19  17 W7        30.15S                  

$$
NMZ527>531-201200-
NORTHEAST HIGHLANDS/NORTHEAST PLAINS
  
CITY           SKY/WX    TMP DP  RH WIND       PRES   REMARKS
LAS VEGAS      FAIR      57  32  38 W10       30.05S                  
RATON          FAIR      47  38  71 NE6       29.99S                  
CLAYTON        FAIR      57  47  69 W12       29.89R                  

$$
NMZ532>537-201200-
EASTCENTRAL PLAINS
  
CITY           SKY/WX    TMP DP  RH WIND       PRES   REMARKS
SANTA ROSA     FAIR      61  38  43 CALM      29.92S                  
TUCUMCARI      FAIR      57  47  69 W6        29.84R                  
CANNON AFB     FAIR      62  54  74 CALM      29.90S                  
CLOVIS AIRPORT FAIR      60  56  86 CALM      29.89S                  

$$
NMZ028-029-538-201200-
SOUTHEAST PLAINS
  
CITY           SKY/WX    TMP DP  RH WIND       PRES   REMARKS
ROSWELL        FAIR      74  27  17 CALM      29.85R                  
ARTESIA        FAIR      77  27  15 NW10G22   29.86R                  
CARLSBAD       FAIR      79  22  12 W14       29.81S                  


$$